Weather Roundup
Issued by NWS Chicago, IL

Home | Current Version | Previous Version | Graphics & Text | Print | Product List | Glossary On
Versions: 1 2 3 4 5 6 7 8 9 10 11 12 13 14 15 16 17 18 19 20 21 22 23 24 25 26 27 28 29 30 31 32 33 34 35 36 37 38 39 40 41 42 43 44 45 46 47 48 49 50
000
NZUS59 KLOT 161558
HRRLOT

CHICAGO AREA WEATHER ROUNDUP
NATIONAL WEATHER SERVICE CHICAGO/ROMEOVILLE IL
1100 AM CDT TUE SEP 16 2014

NOTE: "FAIR" INDICATES FEW OR NO CLOUDS BELOW 12,000 FEET WITH NO
SIGNIFICANT WEATHER AND/OR OBSTRUCTIONS TO VISIBILITY.

* THESE STATIONS ARE NOT UNDER NWS QUALITY CONTROL. THEY ALSO MAY NOT
  REPORT WEATHER SUCH AS PRECIPITATION OR FOG.

ILZ005-006-012>014-019>023-161700-
NORTHEAST ILLINOIS

CITY           SKY/WX    TMP DP  RH WIND       PRES   REMARKS
OHARE          MOSUNNY   59  40  49 VRB3      30.20F
MIDWAY         MOSUNNY   61  48  62 S3        30.20F
AURORA         SUNNY     60  43  53 N5        30.22F
WAUKEGAN       SUNNY     61  39  44 VRB5      30.20F
DUPAGE AIRPORT SUNNY     63  42  46 VRB3      30.21F
WHEELING       SUNNY     62  41  46 CALM      30.22F
NORTHERLY IS     N/A     58  50  75 NE5         N/A
$$

WIZ051-052-058>065-066-070>072-161700-
SOUTHEAST WISCONSIN

CITY           SKY/WX    TMP DP  RH WIND       PRES   REMARKS
MILWAUKEE      SUNNY     59  38  45 VRB6      30.21S
KENOSHA*       SUNNY     60  42  51 VRB5      30.21F
RACINE*        SUNNY     59  40  49 NW7       30.22S
WAUKESHA       SUNNY     55  39  54 W5        30.21F
$$

INZ001>003-010>013-019-020-161700-
NORTHWEST INDIANA

CITY           SKY/WX    TMP DP  RH WIND       PRES   REMARKS
GARY*          MOSUNNY   63  46  55 NW7       30.21F
MICHIGAN CITY* NOT AVBL
RENSSELAER*    NOT AVBL
VALPARAISO     PTSUNNY   58  48  69 CALM      30.20F
$$

LMZ740>746-161700-
SOUTHERN LAKE MICHIGAN

STATION/POSITION TIME  SKY/WX   TEMP WIND        PRES    VSBY
                                AIR  DIR/SP/G
                 (UTC)          (F)  (DEG/KT/KT) (MB)    (MI)
HARRISON CRIB    1500            54  310/  5/  6   N/A
BURNHAM HARBOR   1500            59   60/  3/  4   N/A
CALUMET HARBOR   1500            59   60/  4/  5 1021.7S
BURNS HARBOR     NOT AVBL
MICHIGAN CITY    1500            57  180/  4/  6   N/A
$$

ABBREVIATIONS USED IN REMARKS
   TC - TEMPERATURE IN CELSIUS
  WCI - WIND CHILL INDEX
   HX - HEAT INDEX
  VSB - VISIBILITY
$$


USA.gov is the U.S. government's official web portal to all federal, state and local government web resources and services.